Hourly Data Report for October 04, 2017

All times are specified in Local Standard Time (LST). Add 1 hour to adjust for Daylight Saving Time where and when it is observed.

GEORGE ISLAND (AUT)
MANITOBA

52°49'07.014" N
97°36'59.028" W
222.50 m
5030984
71445
WWS

Download Data

Hourly Data (October 2017)
Hourly Data Report for October 4, 2017
Temp Definition
°C
Dew Point Temp Definition
°C
Rel Hum Definition
%
Wind Dir Definition
10's deg

Wind Spd Definition
km/h
Visibility Definition
km
Stn Press Definition
kPa
Hmdx Definition


Wind Chill Definition


Weather Definition


TIME
00:00 7.7 6.4 91 29 4   99.14     LegendNANA
01:00 8.1 6.7 91 26 8   99.07     LegendNANA
02:00 8.9 6.6 86 27 14   99.03     LegendNANA
03:00 8.5 5.8 83 27 23   99.02     LegendNANA
04:00 8.1 4.8 80 26 23   98.99     LegendNANA
05:00 8.0 5.2 82 25 26   98.90     LegendNANA
06:00 8.2 4.8 79 25 27   98.86     LegendNANA
07:00 8.3 4.8 79 24 38   98.77     LegendNANA
08:00 8.4 4.2 75 26 27   98.75     LegendNANA
09:00 8.9 3.7 70 27 31   98.73     LegendNANA
10:00 9.9 4.2 68 28 28   98.72     LegendNANA
11:00 9.8 4.1 67 29 29   98.76     LegendNANA
12:00 11.1 4.7 65 28 25   98.76     LegendNANA
13:00 11.6 4.8 63 28 23   98.78     LegendNANA
14:00 11.0 5.9 71 30 33   98.80     LegendNANA
15:00 11.1 4.7 65 30 27   98.82     LegendNANA
16:00 10.6 5.7 71 29 24   98.86     LegendNANA
17:00 11.3 5.5 68 31 34   98.88     LegendNANA
18:00 9.9 6.1 78 33 46   98.95     LegendNANA
19:00 10.8 5.9 72 33 36   98.97     LegendNANA
20:00 9.9 4.0 67 36 35   99.00     LegendNANA
21:00 10.0 4.0 66 34 36   99.03     LegendNANA
22:00 9.1 4.3 72 2 28   99.04     LegendNANA
23:00 8.4 4.1 74 1 28   99.07     LegendNANA

Notes on Data Quality.

Legend

  • E = Estimated
  • M = Missing
  • NA = Not Available
  • ‡ = Partner data that is not subject to review by the National Climate Archives
Date modified: